TimeAEST,TemperatureF,Dew PointF,Humidity,Sea Level PressureIn,VisibilityMPH,Wind Direction,Wind SpeedMPH,Gust SpeedMPH,PrecipitationIn,Events,Conditions,WindDirDegrees,DateUTC
12:00 AM,71,66,80,30.01,,South,12.7,,,,Overcast,170,2013-06-08 14:00:00
12:00 AM,71.6,66.2,83,30.01,6.2,South,12.7,-,N/A,,Overcast,170,2013-06-08 14:00:00
12:30 AM,69.8,66.2,88,30.01,6.2,South,12.7,-,N/A,,Mostly Cloudy,170,2013-06-08 14:30:00
1:00 AM,70,66,83,30.01,,South,12.7,,,,,170,2013-06-08 15:00:00
1:00 AM,69.8,66.2,88,30.01,6.2,South,12.7,-,N/A,,Scattered Clouds,170,2013-06-08 15:00:00
1:30 AM,71.6,66.2,83,29.98,6.2,South,13.8,-,N/A,,Overcast,170,2013-06-08 15:30:00
2:00 AM,71.6,66.2,83,29.98,6.2,South,15.0,-,N/A,,Mostly Cloudy,170,2013-06-08 16:00:00
2:30 AM,69.8,66.2,88,29.98,6.2,South,11.5,-,N/A,,Mostly Cloudy,170,2013-06-08 16:30:00
3:00 AM,71,66,80,29.98,,South,11.5,,,,,180,2013-06-08 17:00:00
3:00 AM,69.8,66.2,88,29.98,6.2,South,11.5,-,N/A,,Mostly Cloudy,170,2013-06-08 17:00:00
3:30 AM,71.6,66.2,83,29.98,6.2,South,11.5,-,N/A,,Scattered Clouds,170,2013-06-08 17:30:00
4:00 AM,70,66,83,29.97,,South,11.5,,,,,170,2013-06-08 18:00:00
4:00 AM,69.8,66.2,88,29.95,6.2,South,11.5,-,N/A,,Mostly Cloudy,170,2013-06-08 18:00:00
4:30 AM,69.8,66.2,88,29.95,5.0,South,12.7,-,N/A,,Light Drizzle,170,2013-06-08 18:30:00
5:00 AM,69.8,66.2,88,29.95,6.2,South,12.7,-,N/A,,Scattered Clouds,170,2013-06-08 19:00:00
5:30 AM,69.8,66.2,88,29.95,6.2,South,13.8,-,N/A,,Scattered Clouds,180,2013-06-08 19:30:00
6:00 AM,70,66,83,29.97,16,South,11.5,,,,Partly Cloudy,170,2013-06-08 20:00:00
6:00 AM,69.8,66.2,88,29.95,6.2,South,11.5,-,N/A,,Scattered Clouds,170,2013-06-08 20:00:00
6:30 AM,69.8,66.2,88,29.98,6.2,South,12.7,-,N/A,,Mostly Cloudy,170,2013-06-08 20:30:00
7:00 AM,70,65,81,29.99,,South,12.7,,,,,180,2013-06-08 21:00:00
7:00 AM,69.8,66.2,88,29.98,6.2,South,12.7,-,N/A,,Partly Cloudy,180,2013-06-08 21:00:00
7:30 AM,71.6,64.4,78,29.98,6.2,South,12.7,-,N/A,,Scattered Clouds,170,2013-06-08 21:30:00
8:00 AM,71.6,66.2,83,29.98,6.2,South,12.7,-,N/A,,Scattered Clouds,170,2013-06-08 22:00:00
8:30 AM,73.4,66.2,78,29.98,6.2,South,15.0,-,N/A,,Scattered Clouds,170,2013-06-08 22:30:00
9:00 AM,75,67,70,29.99,12,SSE,15.0,,,,Partly Cloudy,160,2013-06-08 23:00:00
9:00 AM,75.2,68.0,78,29.98,6.2,SSE,15.0,-,N/A,,Mostly Cloudy,160,2013-06-08 23:00:00
9:30 AM,75.2,66.2,73,30.01,3.7,SSE,17.3,-,N/A,,Mostly Cloudy,150,2013-06-08 23:30:00
10:00 AM,72,68,85,30.01,,South,13.8,,,,,170,2013-06-09 00:00:00
10:00 AM,71.6,68.0,88,29.98,6.2,South,13.8,-,N/A,,Mostly Cloudy,170,2013-06-09 00:00:00
10:30 AM,75.2,68.0,78,29.98,6.2,SSE,18.4,-,N/A,,Mostly Cloudy,160,2013-06-09 00:30:00
11:00 AM,77.0,68.0,74,29.98,6.2,SSE,19.6,-,N/A,,Scattered Clouds,150,2013-06-09 01:00:00
11:30 AM,78.8,68.0,69,29.95,3.7,SE,19.6,-,N/A,,Mostly Cloudy,140,2013-06-09 01:30:00
12:00 PM,77,69,69,29.96,6,SE,18.4,,,,Mostly Cloudy,130,2013-06-09 02:00:00
12:00 PM,77.0,68.0,74,29.95,6.2,SE,18.4,-,N/A,,Mostly Cloudy,130,2013-06-09 02:00:00
12:30 PM,78.8,68.0,69,29.95,6.2,SE,17.3,-,N/A,,Scattered Clouds,140,2013-06-09 02:30:00
1:00 PM,80,68,58,29.94,,SSE,20.7,,,,,150,2013-06-09 03:00:00
1:00 PM,80.6,68.0,65,29.92,6.2,SSE,20.7,-,N/A,,Scattered Clouds,150,2013-06-09 03:00:00
1:30 PM,77.0,68.0,74,29.92,6.2,SE,18.4,-,N/A,,Mostly Cloudy,140,2013-06-09 03:30:00
2:00 PM,77.0,68.0,74,29.92,5.0,South,16.1,-,N/A,,Mostly Cloudy,170,2013-06-09 04:00:00
2:30 PM,77.0,68.0,74,29.92,6.2,South,11.5,-,N/A,,Scattered Clouds,170,2013-06-09 04:30:00
3:00 PM,77,68,68,29.91,12,SSE,10.4,,,,Mostly Cloudy,160,2013-06-09 05:00:00
3:00 PM,77.0,68.0,74,29.89,6.2,SSE,10.4,-,N/A,,Scattered Clouds,160,2013-06-09 05:00:00
3:30 PM,78.8,66.2,65,29.89,6.2,SSE,13.8,-,N/A,,Scattered Clouds,150,2013-06-09 05:30:00
4:00 PM,77,66,61,29.91,,SSE,16.1,,,,,150,2013-06-09 06:00:00
4:00 PM,77.0,66.2,69,29.89,6.2,SSE,16.1,-,N/A,,Scattered Clouds,150,2013-06-09 06:00:00
4:30 PM,77.0,68.0,74,29.92,6.2,SSE,13.8,-,N/A,,Scattered Clouds,160,2013-06-09 06:30:00
5:00 PM,75.2,68.0,78,29.92,6.2,SSE,12.7,-,N/A,,Partly Cloudy,150,2013-06-09 07:00:00
5:30 PM,75.2,68.0,78,29.92,6.2,SSE,17.3,-,N/A,,Scattered Clouds,150,2013-06-09 07:30:00
6:00 PM,74,69,79,29.93,,SSE,11.5,,,,Overcast,160,2013-06-09 08:00:00
6:00 PM,73.4,69.8,88,29.92,6.2,SSE,11.5,-,N/A,Rain,Light Rain Showers,160,2013-06-09 08:00:00
6:30 PM,73.4,69.8,88,29.92,6.2,South,9.2,-,N/A,Rain,Light Rain Showers,170,2013-06-09 08:30:00
7:00 PM,73,69,84,29.96,,South,11.5,,,,,170,2013-06-09 09:00:00
7:00 PM,73.4,69.8,88,29.95,6.2,South,11.5,-,N/A,Rain,Light Rain Showers,170,2013-06-09 09:00:00
7:30 PM,73.4,69.8,88,29.95,6.2,South,10.4,-,N/A,,Mostly Cloudy,170,2013-06-09 09:30:00
8:00 PM,73.4,68.0,83,29.95,6.2,South,12.7,-,N/A,,Mostly Cloudy,170,2013-06-09 10:00:00
8:30 PM,73.4,68.0,83,29.95,6.2,SSE,13.8,-,N/A,,Mostly Cloudy,160,2013-06-09 10:30:00
9:00 PM,72,68,85,29.97,,South,11.5,,,,Overcast,180,2013-06-09 11:00:00
9:00 PM,71.6,68.0,88,29.95,6.2,South,11.5,-,N/A,,Mostly Cloudy,180,2013-06-09 11:00:00
9:30 PM,71.6,68.0,88,29.95,6.2,South,12.7,-,N/A,,Scattered Clouds,170,2013-06-09 11:30:00
10:00 PM,72,68,83,29.98,,South,12.7,,,,,180,2013-06-09 12:00:00
10:00 PM,71.6,68.0,88,29.95,6.2,South,12.7,-,N/A,,Mostly Cloudy,180,2013-06-09 12:00:00
10:30 PM,71.6,68.0,88,29.98,6.2,South,12.7,-,N/A,,Mostly Cloudy,180,2013-06-09 12:30:00
11:00 PM,71.6,68.0,88,29.98,6.2,South,11.5,-,N/A,,Mostly Cloudy,170,2013-06-09 13:00:00
11:30 PM,71.6,68.0,88,29.95,6.2,South,12.7,-,N/A,,Scattered Clouds,170,2013-06-09 13:30:00